Location: Glendale
(37.4556°N, 88.6714°W)
Time: 06:22:46
(UTC+00:00)

Okean 1 - Pass Details

Date: 08 December 2019
Orbit: 540 x 554 km, 82.5° (Epoch: 26 January)

Event Time Altitude Azimuth Distance (km) Brightness Sun altitude
Exits shadow 11:22:05 - 359° (N) 2,620 6.6 -18.2°
Reaches altitude 10° 11:24:07 10° 6° (N) 1,808 5.8 -17.8°
Maximum altitude 11:27:57 46° 80° (E) 729 4.3 -17.1°
Drops below altitude 10° 11:31:46 10° 155° (SSE) 1,799 6.5 -16.4°
Sets 11:33:58 0° 161° (SSE) 2,688 7.4 -15.9°
